Location: Unspecified
(0.0000°N, 0.0000°E)
Time: 19:50:50
(UTC+00:00)

CBERS-1 - Pass Details

Date: 11 June 2023
Orbit: 767 x 776 km, 98.8° (Epoch: 24 September)

Event Time Altitude Azimuth Distance (km) Brightness Sun altitude
Rises 03:34:34 0° 2° (N) 3,238 7.6 -33.0°
Reaches altitude 10° 03:36:55 10° 357° (N) 2,314 6.7 -32.4°
Enters shadow 03:38:23 19° 351° (N) 1,768 6.0 -32.1°
